WTB44J MKJP-TNCM

Flight info

Callsign WTB44J
Flight time 1h 54m
Altitude 32000
Route ENEKA7 MLY UG633 KEBET/N0459F330 UL577 ANTEX L577 GOUDA L204 PJM
Aircraft A321/M-SDE3FGHIRWY/LB1

Departure

Time 2026-05-04 10:56
Airport Norman Manley International Airport (MKJP)

Arrival

Time 2026-05-04 12:50
Airport Princess Juliana International Airport (TNCM)
Time Latitude Longitude Altitude Speed Heading
2026-05-04 10:46 17.93626 -76.78050 13 ft 0 kts 112°
2026-05-04 10:51 17.93676 -76.78106 15 ft 0 kts 185°
2026-05-04 10:54 17.93228 -76.77764 15 ft 12 kts 206°
2026-05-04 10:54 17.93204 -76.77817 16 ft 8 kts 284°
2026-05-04 10:56 17.95201 -76.83258 1834 ft 171 kts 293°
2026-05-04 10:56 17.95659 -76.84484 1976 ft 189 kts 292°
2026-05-04 10:56 17.96172 -76.85826 2083 ft 206 kts 292°
2026-05-04 10:57 17.96605 -76.87311 2230 ft 222 kts 273°
2026-05-04 10:57 17.96265 -76.88923 2375 ft 237 kts 239°
2026-05-04 10:57 17.95098 -76.90232 2491 ft 257 kts 215°
2026-05-04 10:57 17.93738 -76.91493 2932 ft 269 kts 223°
2026-05-04 10:58 17.92267 -76.92759 3546 ft 271 kts 207°
2026-05-04 10:58 17.90525 -76.93386 4153 ft 270 kts 182°
2026-05-04 10:58 17.88692 -76.93108 4766 ft 268 kts 154°
2026-05-04 10:58 17.87205 -76.91965 5348 ft 267 kts 127°
2026-05-04 10:59 17.86383 -76.90230 5923 ft 268 kts 105°
2026-05-04 10:59 17.85930 -76.88322 6507 ft 271 kts 102°
2026-05-04 10:59 17.85523 -76.86380 7063 ft 274 kts 102°
2026-05-04 10:59 17.85123 -76.84414 7606 ft 277 kts 102°
2026-05-04 11:00 17.84725 -76.82424 8151 ft 280 kts 102°
2026-05-04 11:01 17.86955 -76.67982 10504 ft 345 kts 63°
2026-05-04 11:02 17.88084 -76.65707 10703 ft 356 kts 67°
2026-05-04 11:02 17.88779 -76.63204 11062 ft 360 kts 78°
2026-05-04 11:05 17.95959 -76.24928 17336 ft 390 kts 81°
2026-05-04 11:06 17.96483 -76.22122 17741 ft 392 kts 81°
2026-05-04 11:06 17.97007 -76.19306 18110 ft 394 kts 81°
2026-05-04 11:06 17.97533 -76.16478 18447 ft 396 kts 81°
2026-05-04 11:06 17.98064 -76.13629 18745 ft 398 kts 81°
2026-05-04 11:08 18.01835 -75.93377 20775 ft 411 kts 81°
2026-05-04 11:10 18.05714 -75.72384 22673 ft 425 kts 81°
2026-05-04 11:12 18.09708 -75.50682 24295 ft 439 kts 80°
2026-05-04 11:12 18.10287 -75.47525 24501 ft 441 kts 80°
2026-05-04 11:12 18.10865 -75.44353 24707 ft 443 kts 80°
2026-05-04 11:12 18.11444 -75.41168 24911 ft 445 kts 80°
2026-05-04 11:13 18.12025 -75.37973 25115 ft 446 kts 79°
2026-05-04 11:13 18.12612 -75.34754 25318 ft 448 kts 79°
2026-05-04 11:13 18.13199 -75.31532 25515 ft 450 kts 79°
2026-05-04 11:13 18.13789 -75.28297 25717 ft 452 kts 79°
2026-05-04 11:14 18.15582 -75.18503 26313 ft 457 kts 79°
2026-05-04 11:16 18.19801 -74.95172 27499 ft 474 kts 78°
2026-05-04 11:16 18.20413 -74.91760 27680 ft 476 kts 78°
2026-05-04 11:16 18.21027 -74.88327 27867 ft 478 kts 78°
2026-05-04 11:17 18.21646 -74.84893 28052 ft 479 kts 78°
2026-05-04 11:17 18.22267 -74.81445 28238 ft 480 kts 78°
2026-05-04 11:19 18.26418 -74.56982 29492 ft 490 kts 81°
2026-05-04 11:19 18.26892 -74.53430 29674 ft 491 kts 82°
2026-05-04 11:19 18.27361 -74.49867 29939 ft 491 kts 82°
2026-05-04 11:19 18.27831 -74.46359 30178 ft 490 kts 81°
2026-05-04 11:20 18.28162 -74.43961 30320 ft 490 kts 81°
2026-05-04 11:20 18.28823 -74.39266 30603 ft 490 kts 81°
2026-05-04 11:20 18.29328 -74.35725 30819 ft 489 kts 81°
2026-05-04 11:20 18.29839 -74.32187 31034 ft 489 kts 81°
2026-05-04 11:22 18.33173 -74.08665 32530 ft 486 kts 81°
2026-05-04 11:22 18.33666 -74.05140 32746 ft 486 kts 81°
2026-05-04 11:23 18.34160 -74.01624 32961 ft 486 kts 81°
2026-05-04 11:23 18.34656 -73.98111 33029 ft 482 kts 81°
2026-05-04 11:25 18.38038 -73.73880 33032 ft 477 kts 81°
2026-05-04 11:25 18.38995 -73.66961 33032 ft 477 kts 81°
2026-05-04 11:27 18.43270 -73.35846 33045 ft 477 kts 81°
2026-05-04 11:28 18.44224 -73.28933 33046 ft 477 kts 81°
2026-05-04 11:28 18.45165 -73.22063 33046 ft 477 kts 82°
2026-05-04 11:29 18.46093 -73.15152 33046 ft 477 kts 82°
2026-05-04 11:29 18.47020 -73.08237 33043 ft 476 kts 82°
2026-05-04 11:33 18.53623 -72.59943 33041 ft 475 kts 82°
2026-05-04 11:33 18.54569 -72.53060 33034 ft 475 kts 81°
2026-05-04 11:34 18.55518 -72.46171 33031 ft 474 kts 82°
2026-05-04 11:34 18.56448 -72.39340 33028 ft 474 kts 82°
2026-05-04 11:35 18.57349 -72.32455 33029 ft 474 kts 85°
2026-05-04 11:35 18.56953 -72.25554 33028 ft 473 kts 99°
2026-05-04 11:36 18.55973 -72.18701 33024 ft 473 kts 98°
2026-05-04 11:36 18.55017 -72.11834 33025 ft 473 kts 99°
2026-05-04 11:37 18.54057 -72.04969 33035 ft 473 kts 98°
2026-05-04 11:37 18.53082 -71.98111 33057 ft 473 kts 99°
2026-05-04 11:38 18.52083 -71.91258 33086 ft 473 kts 99°
2026-05-04 11:38 18.51519 -71.84364 33088 ft 473 kts 92°
2026-05-04 11:39 18.51295 -71.77444 33090 ft 473 kts 92°
2026-05-04 11:41 18.50471 -71.53265 33097 ft 473 kts 92°
2026-05-04 11:41 18.50228 -71.46327 33099 ft 473 kts 92°
2026-05-04 11:42 18.49978 -71.39411 33098 ft 472 kts 92°
2026-05-04 11:42 18.49727 -71.32503 33095 ft 472 kts 92°
2026-05-04 11:43 18.49463 -71.25593 33092 ft 471 kts 92°
2026-05-04 11:43 18.49208 -71.18694 33091 ft 471 kts 92°
2026-05-04 11:44 18.48958 -71.11790 33091 ft 471 kts 92°
2026-05-04 11:44 18.48707 -71.04934 33095 ft 471 kts 92°
2026-05-04 11:45 18.48443 -70.98027 33094 ft 471 kts 92°
2026-05-04 11:45 18.48181 -70.91142 33090 ft 470 kts 92°
2026-05-04 11:46 18.47913 -70.84250 33092 ft 470 kts 92°
2026-05-04 11:46 18.47629 -70.77369 33089 ft 470 kts 92°
2026-05-04 11:47 18.47364 -70.70485 33088 ft 470 kts 92°
2026-05-04 11:47 18.47096 -70.63641 33095 ft 470 kts 92°
2026-05-04 11:48 18.46818 -70.56751 33095 ft 471 kts 92°
2026-05-04 11:48 18.46535 -70.49860 33096 ft 471 kts 92°
2026-05-04 11:49 18.46255 -70.42970 33098 ft 471 kts 92°
2026-05-04 11:49 18.45975 -70.36075 33094 ft 471 kts 92°
2026-05-04 11:50 18.45696 -70.29183 33086 ft 471 kts 92°
2026-05-04 11:50 18.45408 -70.22340 33079 ft 470 kts 92°
2026-05-04 11:51 18.45109 -70.15453 33073 ft 470 kts 93°
2026-05-04 11:51 18.44643 -70.08583 33068 ft 470 kts 95°
2026-05-04 11:52 18.43981 -70.01726 33064 ft 470 kts 96°
2026-05-04 11:52 18.43519 -69.94875 33059 ft 469 kts 90°
2026-05-04 11:53 18.43484 -69.87992 33057 ft 470 kts 90°
2026-05-04 11:53 18.43480 -69.81155 33055 ft 469 kts 90°
2026-05-04 11:55 18.43778 -69.53641 33056 ft 470 kts 88°
2026-05-04 11:56 18.44044 -69.46759 33061 ft 470 kts 88°
2026-05-04 11:56 18.44264 -69.39877 33067 ft 470 kts 88°
2026-05-04 11:57 18.44458 -69.33034 33069 ft 470 kts 88°
2026-05-04 11:57 18.44651 -69.26143 33071 ft 470 kts 88°
2026-05-04 11:58 18.44847 -69.19257 33076 ft 470 kts 88°
2026-05-04 11:58 18.45043 -69.12374 33079 ft 470 kts 88°
2026-05-04 11:59 18.45240 -69.05497 33082 ft 470 kts 88°
2026-05-04 11:59 18.45442 -68.98620 33082 ft 470 kts 88°
2026-05-04 12:00 18.45632 -68.91738 33083 ft 470 kts 88°
2026-05-04 12:00 18.45819 -68.84857 33084 ft 470 kts 88°
2026-05-04 12:01 18.46003 -68.77972 33084 ft 470 kts 88°
2026-05-04 12:02 18.46632 -68.53907 33069 ft 470 kts 88°
2026-05-04 12:03 18.46804 -68.47020 33070 ft 470 kts 88°
2026-05-04 12:03 18.46972 -68.40138 33064 ft 470 kts 88°
2026-05-04 12:04 18.47143 -68.33256 33064 ft 470 kts 88°
2026-05-04 12:04 18.47311 -68.26373 33063 ft 470 kts 88°
2026-05-04 12:05 18.47472 -68.19487 33060 ft 470 kts 88°
2026-05-04 12:05 18.47639 -68.12603 33065 ft 470 kts 88°
2026-05-04 12:06 18.47799 -68.05717 33068 ft 470 kts 88°
2026-05-04 12:06 18.47825 -67.98828 33073 ft 470 kts 95°
2026-05-04 12:07 18.47191 -67.91970 33074 ft 470 kts 95°
2026-05-04 12:07 18.46559 -67.85162 33073 ft 470 kts 95°
2026-05-04 12:08 18.45922 -67.78308 33073 ft 470 kts 95°
2026-05-04 12:08 18.45285 -67.71447 33075 ft 470 kts 95°
2026-05-04 12:09 18.44636 -67.64595 33076 ft 470 kts 95°
2026-05-04 12:09 18.44100 -67.58908 33075 ft 470 kts 95°
2026-05-04 12:10 18.43453 -67.52063 33075 ft 470 kts 95°
2026-05-04 12:10 18.42806 -67.45219 33078 ft 470 kts 95°
2026-05-04 12:11 18.42154 -67.38376 33087 ft 470 kts 95°
2026-05-04 12:11 18.41494 -67.31532 33097 ft 469 kts 95°
2026-05-04 12:12 18.40843 -67.24692 33100 ft 469 kts 95°
2026-05-04 12:12 18.40190 -67.17863 33100 ft 469 kts 95°
2026-05-04 12:14 18.37541 -66.90528 33093 ft 469 kts 95°
2026-05-04 12:15 18.36865 -66.83698 33093 ft 469 kts 95°
2026-05-04 12:15 18.36192 -66.76908 33093 ft 469 kts 95°
2026-05-04 12:16 18.35519 -66.70071 33098 ft 469 kts 95°
2026-05-04 12:16 18.34844 -66.63239 33102 ft 469 kts 95°
2026-05-04 12:17 18.34165 -66.56407 33098 ft 469 kts 95°
2026-05-04 12:17 18.33485 -66.49580 33100 ft 469 kts 95°
2026-05-04 12:18 18.32800 -66.42746 33106 ft 469 kts 95°
2026-05-04 12:18 18.32112 -66.35919 33104 ft 469 kts 95°
2026-05-04 12:19 18.31417 -66.29095 33104 ft 469 kts 95°
2026-05-04 12:19 18.30722 -66.22273 33101 ft 469 kts 95°
2026-05-04 12:20 18.30040 -66.15502 33104 ft 469 kts 95°
2026-05-04 12:20 18.29346 -66.08683 33102 ft 468 kts 95°
2026-05-04 12:21 18.28639 -66.01874 33107 ft 468 kts 95°
2026-05-04 12:21 18.27938 -65.95063 33108 ft 468 kts 95°
2026-05-04 12:22 18.27243 -65.88248 33099 ft 468 kts 95°
2026-05-04 12:22 18.26544 -65.81436 33094 ft 468 kts 95°
2026-05-04 12:23 18.25835 -65.74625 33082 ft 469 kts 95°
2026-05-04 12:23 18.25117 -65.67800 33076 ft 469 kts 95°
2026-05-04 12:24 18.24393 -65.60973 33076 ft 470 kts 95°
2026-05-04 12:24 18.23678 -65.54136 33075 ft 469 kts 95°
2026-05-04 12:25 18.22972 -65.47317 33087 ft 469 kts 95°
2026-05-04 12:25 18.22256 -65.40496 33091 ft 469 kts 95°
2026-05-04 12:26 18.21526 -65.33685 33090 ft 469 kts 95°
2026-05-04 12:26 18.20794 -65.26872 33094 ft 468 kts 95°
2026-05-04 12:27 18.20085 -65.20108 33094 ft 468 kts 95°
2026-05-04 12:27 18.19357 -65.13311 33097 ft 468 kts 95°
2026-05-04 12:28 18.18615 -65.06507 33071 ft 470 kts 95°
2026-05-04 12:28 18.17876 -64.99648 33068 ft 473 kts 95°
2026-05-04 12:29 18.17478 -64.96243 32532 ft 465 kts 97°
2026-05-04 12:29 18.16968 -64.92914 31567 ft 458 kts 99°
2026-05-04 12:29 18.16367 -64.89646 30666 ft 451 kts 101°
2026-05-04 12:29 18.15724 -64.86442 29698 ft 445 kts 101°
2026-05-04 12:30 18.15083 -64.83281 28693 ft 439 kts 101°
2026-05-04 12:30 18.14465 -64.80162 27772 ft 431 kts 101°
2026-05-04 12:30 18.13881 -64.77098 26869 ft 423 kts 100°
2026-05-04 12:30 18.13324 -64.74091 26022 ft 415 kts 100°
2026-05-04 12:31 18.12788 -64.71140 25221 ft 407 kts 100°
2026-05-04 12:31 18.12267 -64.68247 24444 ft 398 kts 100°
2026-05-04 12:31 18.11759 -64.65415 23695 ft 390 kts 100°
2026-05-04 12:31 18.11261 -64.62652 23216 ft 382 kts 100°
2026-05-04 12:32 18.10761 -64.59892 22963 ft 385 kts 100°
2026-05-04 12:32 18.09744 -64.54366 22461 ft 387 kts 101°
2026-05-04 12:32 18.09231 -64.51601 22202 ft 385 kts 101°
2026-05-04 12:33 18.08721 -64.48843 21950 ft 384 kts 101°
2026-05-04 12:33 18.08212 -64.46091 21703 ft 383 kts 101°
2026-05-04 12:33 18.07705 -64.43344 21458 ft 382 kts 101°
2026-05-04 12:33 18.07200 -64.40595 21212 ft 382 kts 101°
2026-05-04 12:34 18.06699 -64.37873 20897 ft 377 kts 101°
2026-05-04 12:34 18.06200 -64.35179 20457 ft 375 kts 101°
2026-05-04 12:34 18.05703 -64.32492 20007 ft 374 kts 101°
2026-05-04 12:34 18.05215 -64.29852 19574 ft 373 kts 101°
2026-05-04 12:35 18.04717 -64.27143 19123 ft 372 kts 101°
2026-05-04 12:35 18.04226 -64.24476 18675 ft 372 kts 102°
2026-05-04 12:35 18.03738 -64.21843 18231 ft 372 kts 102°
2026-05-04 12:35 18.03241 -64.19185 17761 ft 370 kts 102°
2026-05-04 12:36 18.02748 -64.16541 17326 ft 368 kts 102°
2026-05-04 12:36 18.02257 -64.13910 16894 ft 365 kts 102°
2026-05-04 12:36 18.01770 -64.11294 16469 ft 363 kts 102°
2026-05-04 12:36 18.01287 -64.08697 16045 ft 361 kts 102°
2026-05-04 12:37 18.00807 -64.06113 15625 ft 359 kts 102°
2026-05-04 12:37 18.00329 -64.03543 15205 ft 357 kts 101°
2026-05-04 12:37 17.99854 -64.00983 14783 ft 356 kts 101°
2026-05-04 12:37 17.99381 -63.98440 14363 ft 354 kts 101°
2026-05-04 12:38 17.98909 -63.95910 13945 ft 352 kts 101°
2026-05-04 12:38 17.98435 -63.93387 13488 ft 350 kts 102°
2026-05-04 12:38 17.97964 -63.90895 13071 ft 347 kts 102°
2026-05-04 12:38 17.97496 -63.88418 12646 ft 344 kts 101°
2026-05-04 12:39 17.97033 -63.85959 12232 ft 342 kts 101°
2026-05-04 12:39 17.96573 -63.83517 11810 ft 340 kts 101°
2026-05-04 12:39 17.96117 -63.81091 11395 ft 338 kts 101°
2026-05-04 12:39 17.95664 -63.78678 10971 ft 336 kts 101°
2026-05-04 12:40 17.95213 -63.76276 10555 ft 334 kts 101°
2026-05-04 12:40 17.94765 -63.73896 10287 ft 328 kts 101°
2026-05-04 12:40 17.94331 -63.71590 10159 ft 316 kts 101°
2026-05-04 12:40 17.93913 -63.69367 10046 ft 305 kts 101°
2026-05-04 12:41 17.93582 -63.67211 9846 ft 297 kts 92°
2026-05-04 12:41 17.93738 -63.65069 9504 ft 294 kts 78°
2026-05-04 12:41 17.94195 -63.62990 9157 ft 291 kts 77°
2026-05-04 12:41 17.94646 -63.60933 8832 ft 287 kts 78°
2026-05-04 12:42 17.95088 -63.58903 8505 ft 283 kts 78°
2026-05-04 12:42 17.95525 -63.56898 8180 ft 280 kts 78°
2026-05-04 12:42 17.95958 -63.54910 7829 ft 278 kts 78°
2026-05-04 12:42 17.96377 -63.52973 7488 ft 275 kts 78°
2026-05-04 12:43 17.96798 -63.51018 7149 ft 273 kts 78°
2026-05-04 12:43 17.97216 -63.49078 6789 ft 271 kts 78°
2026-05-04 12:43 17.97629 -63.47154 6455 ft 269 kts 78°
2026-05-04 12:43 17.98038 -63.45246 6085 ft 267 kts 78°
2026-05-04 12:44 17.98441 -63.43367 5484 ft 262 kts 79°
2026-05-04 12:44 17.98840 -63.41509 4760 ft 260 kts 79°
2026-05-04 12:44 17.99234 -63.39673 4087 ft 256 kts 79°
2026-05-04 12:44 17.99623 -63.37867 3441 ft 252 kts 79°
2026-05-04 12:45 18.00004 -63.36106 3085 ft 240 kts 79°
2026-05-04 12:45 18.00367 -63.34420 2925 ft 232 kts 79°
2026-05-04 12:45 18.00715 -63.32802 2841 ft 220 kts 79°
2026-05-04 12:45 18.01046 -63.31276 2704 ft 209 kts 79°
2026-05-04 12:46 18.01363 -63.29806 2623 ft 205 kts 80°
2026-05-04 12:46 18.01631 -63.28353 2606 ft 201 kts 83°
2026-05-04 12:46 18.01841 -63.26903 2605 ft 200 kts 83°
2026-05-04 12:46 18.02037 -63.25471 2367 ft 198 kts 84°
2026-05-04 12:47 18.02230 -63.24075 2189 ft 185 kts 84°
2026-05-04 12:47 18.02409 -63.22799 2070 ft 169 kts 84°
2026-05-04 12:47 18.02576 -63.21614 1869 ft 162 kts 83°
2026-05-04 12:47 18.02739 -63.20462 1729 ft 155 kts 83°
2026-05-04 12:48 18.02892 -63.19377 1497 ft 148 kts 84°
2026-05-04 12:48 18.03041 -63.18318 1282 ft 144 kts 84°
2026-05-04 12:48 18.03187 -63.17278 1081 ft 144 kts 84°
2026-05-04 12:48 18.03336 -63.16237 887 ft 144 kts 83°
2026-05-04 12:49 18.03493 -63.15198 648 ft 146 kts 83°
2026-05-04 12:49 18.03648 -63.14159 368 ft 142 kts 83°
2026-05-04 12:49 18.03764 -63.13131 255 ft 142 kts 83°
2026-05-04 12:49 18.03916 -63.12118 98 ft 142 kts 82°
2026-05-04 12:50 18.04056 -63.11114 30 ft 126 kts 82°
2026-05-04 12:50 18.04153 -63.10442 28 ft 50 kts 81°
2026-05-04 12:50 18.04196 -63.10124 27 ft 32 kts 87°
2026-05-04 12:50 18.04211 -63.09985 27 ft 8 kts 15°
2026-05-04 12:51 18.04219 -63.10019 27 ft 10 kts 262°
2026-05-04 12:51 18.04200 -63.10142 27 ft 23 kts 261°
2026-05-04 12:51 18.04173 -63.10331 27 ft 27 kts 261°
2026-05-04 12:51 18.04146 -63.10521 28 ft 26 kts 261°
2026-05-04 12:52 18.04119 -63.10699 27 ft 25 kts 261°